Temp
64 53 49 56 61 64 63 59 58 63 70 66 63 62 66 68 67 68 68 69 70 72 77 77 77 77 76 73 72 73 74 73 72 69 70 72 70 72 72 73 76 76 75 76
57 52 63 69 69 66 63 58 56 63 70 63 61 60 63 66 67 68 69 69 69 69 72 75 74 72 71 69 69 71 71 71 70 68 68 70 71 73 74 74 74 76 77 78
55 63 71 69 65 64 58 56 57 57 64 64 60 54 60 68 69 72 71 71 70 69 67 69 70 68 69 69 69 69 68 69 69 69 69 67 68 70 70 72 72 75 76 78
61 69 69 63 64 64 54 66 66 63 55 45 59 40 54 61 63 70 68 65 65 66 68 68 68 67 68 69 69 68 68 67 69 68 66 64 63 66 73 70 72 73 76 76
59 63 64 62 64 68 60 66 62 60 52 49 52 43 51 60 61 61 62 65 64 65 67 67 68 70 68 69 67 67 67 67 67 66 65 63 63 67 70 68 70 71 73 75
63 71 68 67 71 70 69 61 58 54 49 37 50 47 49 57 59 60 63 65 67 66 67 67 68 69 67 68 67 66 66 65 67 66 66 63 63 65 68 71 67 70 71 75
58 60 68 72 63 66 61 49 36 34 34 36 54 48 51 62 63 63 62 63 64 65 65 64 62 65 64 63 65 67 66 65 66 66 66 66 65 63 65 69 71 71 70 70
47 46 63 67 62 56 57 53 40 29 31 39 55 43 53 63 64 65 65 63 65 61 64 63 62 66 65 65 66 65 65 64 64 64 64 63 64 64 68 67 68 67 70 70
46 48 67 68 67 62 55 49 55 43 45 37 43 52 62 64 61 63 62 63 61 63 64 65 65 65 65 65 65 65 65 64 64 64 64 63 63 63 63 64 65 66 68 71
52 43 59 64 67 64 56 61 42 42 31 29 43 47 48 53 55 60 58 57 58 61 62 62 64 65 65 65 66 65 64 64 64 63 63 65 63 63 62 61 63 65 67 65
53 46 48 56 51 48 51 48 50 48 41 28 28 41 58 54 57 56 57 61 61 61 60 63 64 65 65 64 63 64 63 63 63 63 63 62 62 63 61 59 61 64 62 58
52 44 37 46 58 63 59 51 50 35 37 39 36 40 60 58 59 59 59 61 60 59 62 61 61 62 62 62 62 60 59 60 60 61 62 62 61 61 60 60 60 60 59 58
51 40 32 39 47 55 53 55 54 45 45 38 32 36 62 64 60 59 57 59 60 60 60 59 60 60 60 59 59 58 58 58 58 58 58 58 59 60 61 59 60 59 59 57
55 44 39 33 41 45 42 48 55 49 34 41 43 47 56 59 58 59 55 57 57 57 60 58 55 54 55 57 56 57 57 58 58 57 56 55 56 57 59 60 59 59 60 58
47 38 43 46 51 51 47 47 47 48 48 42 47 50 56 56 54 53 55 58 58 57 57 57 56 54 54 55 56 57 56 56 56 54 53 53 55 56 57 58 57 57 60 62
45 36 42 41 50 50 47 52 49 51 52 52 54 53 56 55 56 55 55 56 53 55 56 56 57 55 54 54 53 54 52 52 52 51 50 52 52 53 54 56 57 56 56 59
41 39 37 32 47 45 38 49 52 54 56 56 47 50 52 51 53 52 50 51 51 52 54 54 53 50 49 48 49 48 49 50 50 50 50 51 51 51 52 55 55 57 54 54
43 41 38 32 40 27 47 58 60 56 55 54 54 52 53 51 52 53 51 47 50 52 52 48 45 46 48 49 47 47 48 47 47 48 49 49 48 49 51 52 51 53 54 52
46 42 35 32 32 40 48 55 53 50 45 51 50 52 52 52 51 47 54 55 51 50 47 44 47 47 45 45 45 44 44 44 45 45 46 48 48 48 49 49 49 49 50 51
49 46 36 34 29 29 44 52 56 56 40 52 52 50 48 48 38 42 51 51 52 46 45 45 45 45 44 44 43 42 42 42 42 44 45 47 47 46 45 46 47 49 51 51
38 38 33 32 28 37 53 54 53 37 37 51 51 49 47 41 43 47 51 50 50 45 45 46 44 42 42 43 42 40 41 41 44 45 46 46 46 45 45 45 47 49 49 52
36 34 33 34 31 27 54 54 43 45 49 51 51 49 46 46 48 49 49 49 44 43 44 43 41 40 42 42 41 40 40 43 44 44 44 45 45 45 46 44 44 45 48 50
36 40 35 38 36 47 52 49 54 54 50 50 48 49 48 46 47 48 47 45 43 43 42 42 40 39 41 42 41 39 40 43 44 44 44 45 45 45 45 42 42 43 45 48
47 49 37 42 47 49 51 51 54 54 52 52 52 50 49 45 47 44 44 43 41 41 40 40 38 38 38 40 41 41 43 44 43 44 45 46 46 44 44 43 43 42 44 45
48 47 43 42 47 49 50 54 54 55 55 53 53 51 48 47 44 42 41 40 40 39 38 38 37 37 37 39 40 42 42 43 43 45 46 45 44 43 43 43 43 43 45 46
51 46 38 37 48 48 49 51 57 54 52 52 51 48 49 46 42 42 40 40 38 37 37 37 37 37 38 39 39 41 43 44 43 43 46 43 42 42 43 42 42 41 42 41
MSLP
1004.86 1005.15 1005.07 1004.61 1004.01 1003.48 1003.57 1003.46 1003.14 1002.24 1001.15 1001.41 1002.38 1002.59 1002.78 1002.74 1002.97 1003.57 1003.81 1004.01 1004.07 1004.06 1003.76 1003.74 1004.00 1004.11 1004.39 1004.94 1005.13 1005.29 1005.60 1005.99 1006.37 1006.83 1006.98 1007.26 1007.36 1007.41 1007.31 1007.07 1006.95 1007.25 1007.33 1007.58
1004.94 1004.57 1003.88 1003.44 1003.13 1002.94 1002.98 1002.97 1002.62 1002.07 1001.80 1002.11 1002.57 1002.89 1002.62 1002.72 1002.88 1002.97 1003.25 1003.58 1003.78 1003.95 1003.99 1004.31 1004.79 1005.51 1006.04 1006.35 1006.41 1006.43 1006.67 1006.90 1007.11 1007.40 1007.38 1007.26 1007.20 1007.00 1007.07 1007.03 1006.82 1006.50 1006.64 1006.68
1004.13 1003.27 1003.25 1002.65 1002.36 1002.24 1002.36 1002.74 1002.89 1002.96 1002.62 1002.73 1003.04 1003.32 1003.16 1002.92 1002.90 1002.87 1002.97 1003.15 1003.56 1004.19 1005.02 1005.30 1005.73 1006.11 1006.38 1006.56 1006.59 1006.97 1007.28 1007.31 1007.43 1007.56 1007.58 1007.49 1007.30 1007.18 1007.05 1007.08 1006.83 1006.37 1006.32 1006.14
1003.30 1002.64 1002.24 1002.05 1002.12 1002.22 1002.44 1002.71 1003.06 1003.42 1003.79 1004.33 1003.97 1004.63 1004.22 1003.58 1003.23 1002.78 1003.23 1004.24 1004.62 1004.76 1004.92 1005.45 1005.93 1006.11 1006.43 1006.73 1006.75 1006.95 1007.19 1007.28 1007.18 1007.19 1007.49 1007.80 1007.96 1007.79 1007.34 1006.91 1006.39 1006.19 1005.82 1005.64
1003.30 1002.60 1002.11 1001.87 1001.94 1002.15 1002.68 1003.02 1003.76 1004.36 1005.09 1005.42 1005.48 1005.78 1004.51 1003.83 1003.58 1004.11 1004.51 1004.75 1005.09 1005.23 1005.35 1005.75 1006.01 1006.14 1006.50 1006.45 1006.68 1006.95 1007.04 1007.01 1007.04 1007.01 1007.07 1007.22 1007.45 1007.53 1007.19 1006.75 1005.96 1005.45 1005.21 1004.73
1003.32 1002.79 1002.45 1001.56 1001.44 1001.86 1002.60 1003.47 1004.56 1005.52 1006.44 1007.03 1006.08 1006.36 1005.09 1004.19 1003.93 1004.30 1004.66 1005.04 1005.22 1005.40 1005.54 1005.80 1005.88 1006.09 1006.34 1006.37 1006.61 1006.82 1007.00 1007.07 1006.93 1006.91 1006.87 1006.98 1007.00 1006.91 1006.60 1006.35 1005.78 1005.04 1004.49 1003.83
1003.57 1003.07 1002.32 1001.93 1001.91 1002.16 1002.99 1004.37 1006.32 1007.27 1007.56 1007.32 1006.41 1005.98 1004.73 1003.94 1003.71 1004.03 1004.67 1005.04 1005.26 1005.48 1005.69 1005.83 1005.93 1006.13 1006.21 1006.39 1006.50 1006.70 1006.84 1006.94 1006.85 1006.72 1006.72 1006.74 1006.64 1006.41 1006.18 1005.76 1005.10 1004.51 1003.95 1003.21
1004.08 1003.56 1002.61 1002.76 1003.02 1003.39 1003.69 1004.92 1006.79 1008.24 1008.14 1007.57 1006.69 1006.09 1004.39 1003.76 1003.89 1004.34 1004.94 1005.15 1005.36 1005.62 1005.56 1005.62 1005.60 1005.61 1005.76 1005.96 1006.13 1006.40 1006.45 1006.50 1006.41 1006.26 1006.18 1006.10 1006.07 1005.95 1005.67 1005.37 1004.80 1003.87 1003.37 1002.80
1004.47 1004.12 1003.41 1003.59 1003.65 1004.08 1004.67 1005.42 1006.98 1008.22 1008.43 1008.29 1007.08 1005.46 1004.10 1004.17 1004.49 1004.77 1005.03 1005.27 1005.42 1005.31 1005.16 1004.96 1004.98 1005.21 1005.56 1005.74 1005.89 1005.84 1005.91 1005.83 1005.73 1005.59 1005.48 1005.41 1005.22 1005.17 1004.94 1004.65 1004.17 1003.44 1002.55 1002.08
1004.61 1005.07 1004.63 1004.35 1004.22 1004.43 1005.21 1006.11 1007.25 1008.58 1009.66 1009.32 1007.61 1005.98 1005.29 1005.23 1005.07 1004.96 1005.08 1005.09 1004.96 1004.85 1004.86 1005.00 1005.36 1005.41 1005.50 1005.57 1005.40 1005.36 1005.26 1005.26 1005.06 1005.01 1004.99 1004.72 1004.55 1004.32 1003.97 1003.76 1003.52 1003.02 1002.17 1001.61
1005.02 1005.91 1006.05 1005.90 1005.38 1005.58 1006.22 1006.53 1007.45 1008.63 1009.81 1009.92 1008.93 1006.86 1005.15 1005.19 1004.98 1004.94 1005.01 1004.93 1004.80 1004.74 1005.11 1005.03 1005.19 1005.07 1005.22 1005.35 1005.34 1005.26 1005.28 1005.08 1004.85 1004.61 1004.30 1004.01 1003.87 1003.58 1003.31 1003.19 1002.93 1002.43 1002.10 1001.53
1005.92 1006.94 1007.23 1006.84 1006.16 1005.92 1006.19 1006.76 1007.43 1008.53 1009.45 1009.44 1008.69 1006.97 1005.11 1005.13 1004.89 1004.62 1004.68 1004.65 1004.68 1005.04 1005.23 1005.68 1005.99 1005.99 1006.15 1006.28 1006.42 1006.50 1006.48 1006.66 1006.31 1006.07 1005.54 1004.78 1003.70 1002.99 1002.80 1002.60 1002.15 1002.08 1002.07 1001.87
1006.94 1007.71 1008.29 1007.68 1006.96 1006.27 1006.58 1006.80 1007.31 1007.94 1008.87 1009.16 1008.76 1007.37 1005.77 1004.95 1004.70 1004.54 1004.86 1005.18 1005.37 1005.70 1005.91 1006.09 1006.37 1006.93 1007.16 1007.22 1007.26 1007.21 1007.16 1007.02 1006.75 1006.43 1005.97 1005.38 1004.70 1004.07 1003.14 1002.61 1001.89 1001.46 1001.64 1001.60
1007.31 1008.42 1008.87 1008.74 1008.35 1008.49 1007.99 1007.57 1007.12 1007.58 1008.17 1008.11 1007.56 1006.85 1005.90 1005.22 1004.89 1005.19 1005.63 1005.67 1006.11 1006.29 1006.39 1006.77 1007.04 1007.39 1007.46 1007.59 1007.61 1007.48 1007.23 1006.93 1006.66 1006.26 1005.74 1005.20 1004.62 1004.16 1003.48 1002.78 1002.30 1001.63 1000.78 1000.96
1008.50 1009.15 1009.36 1009.09 1008.49 1008.24 1008.35 1008.00 1007.86 1007.44 1007.48 1007.09 1006.75 1006.10 1005.58 1005.44 1005.83 1006.25 1006.35 1006.45 1006.61 1006.92 1007.25 1007.43 1007.57 1007.60 1007.64 1007.57 1007.34 1007.05 1006.89 1006.63 1006.42 1005.88 1005.40 1004.81 1004.11 1003.45 1002.98 1002.62 1002.19 1001.68 1000.89 1000.11
1009.54 1009.85 1009.77 1009.46 1008.85 1008.29 1007.56 1007.05 1006.95 1006.56 1006.46 1006.23 1005.96 1005.48 1005.68 1005.84 1006.12 1006.49 1006.83 1007.04 1007.61 1007.80 1007.92 1008.08 1008.18 1008.03 1007.80 1007.71 1007.47 1007.13 1006.84 1006.34 1005.91 1005.32 1004.74 1004.29 1003.68 1003.11 1002.42 1001.89 1001.44 1001.18 1000.68 1000.34
1010.48 1010.66 1010.67 1010.07 1009.38 1008.61 1007.22 1005.52 1005.32 1005.26 1005.35 1005.50 1005.63 1006.00 1006.01 1006.43 1006.80 1007.22 1007.76 1008.10 1008.47 1008.70 1008.68 1008.44 1008.26 1008.34 1008.44 1008.26 1007.82 1007.08 1006.54 1005.92 1005.30 1004.61 1004.05 1003.58 1003.03 1002.34 1001.76 1001.21 1000.86 1000.42 1000.15 999.87
1010.48 1011.10 1011.38 1010.99 1010.08 1008.77 1006.33 1004.81 1004.44 1004.73 1005.08 1006.03 1005.95 1006.45 1006.84 1007.21 1007.37 1007.71 1008.41 1008.93 1008.82 1008.51 1008.45 1008.53 1008.75 1008.67 1008.25 1007.78 1007.40 1006.85 1006.22 1005.63 1004.85 1003.98 1003.33 1003.00 1002.60 1001.77 1001.14 1000.69 1000.43 1000.02 999.69 999.37
1010.21 1011.29 1011.69 1011.47 1010.22 1008.44 1006.47 1005.29 1005.10 1005.19 1006.92 1007.29 1007.06 1007.27 1007.45 1007.75 1007.87 1008.19 1008.58 1008.45 1008.48 1008.88 1008.90 1009.08 1008.93 1008.63 1008.11 1007.62 1007.05 1006.57 1005.70 1005.15 1004.46 1003.69 1002.89 1002.26 1001.85 1001.11 1000.56 1000.00 999.65 999.66 999.59 999.00
1010.00 1010.90 1012.12 1011.76 1010.84 1008.93 1007.13 1006.34 1006.00 1006.07 1006.94 1007.39 1007.53 1007.90 1008.26 1008.28 1008.76 1008.71 1008.38 1008.60 1008.84 1009.14 1009.25 1009.07 1008.65 1008.21 1007.89 1007.27 1006.71 1005.96 1005.16 1004.48 1003.65 1002.86 1002.18 1001.64 1001.14 1000.65 1000.23 999.97 999.44 999.08 998.88 998.18
1010.09 1011.11 1011.51 1011.53 1010.81 1008.96 1006.85 1006.65 1007.31 1007.65 1008.38 1007.81 1008.10 1008.48 1008.81 1009.33 1009.77 1009.23 1008.92 1009.07 1009.11 1009.43 1009.15 1008.82 1008.58 1008.10 1007.48 1006.81 1006.13 1005.31 1004.54 1003.74 1002.95 1002.24 1001.57 1000.80 1000.21 999.76 999.50 999.36 998.97 998.53 998.32 998.03
1009.55 1010.39 1010.61 1011.01 1010.34 1009.24 1007.36 1006.95 1007.30 1007.70 1007.68 1008.13 1008.45 1008.79 1009.16 1009.36 1009.48 1009.50 1009.51 1009.39 1009.49 1009.29 1008.78 1008.64 1008.10 1007.50 1006.94 1006.44 1005.78 1004.89 1004.07 1003.28 1002.48 1001.67 1000.70 999.83 999.04 998.59 998.32 998.39 998.33 998.15 997.51 997.61
1008.96 1008.80 1009.21 1009.32 1008.88 1008.29 1007.89 1008.25 1007.86 1007.42 1007.92 1008.24 1008.59 1008.93 1009.25 1009.56 1009.76 1009.76 1009.60 1009.69 1009.53 1009.28 1009.04 1008.72 1008.13 1007.13 1006.47 1005.90 1005.35 1004.41 1003.44 1002.64 1001.67 1000.66 999.53 998.49 997.78 997.26 997.23 997.37 997.52 997.46 997.19 996.84
1008.47 1008.33 1008.83 1008.90 1008.19 1008.02 1008.20 1008.07 1008.47 1007.67 1007.87 1008.21 1008.62 1009.07 1009.38 1009.94 1009.96 1010.23 1010.21 1010.01 1009.74 1009.49 1009.14 1008.61 1007.76 1006.89 1005.94 1005.36 1004.67 1003.92 1002.79 1001.90 1000.98 999.73 998.44 997.16 996.58 996.03 995.99 996.19 996.58 996.85 996.79 996.51
1008.24 1008.10 1008.08 1008.27 1008.18 1008.51 1008.48 1007.98 1007.73 1007.93 1007.97 1008.38 1008.83 1009.25 1009.83 1010.08 1010.55 1010.84 1010.70 1010.38 1010.11 1009.76 1009.16 1008.39 1007.62 1006.76 1005.83 1004.91 1004.01 1003.20 1002.37 1001.44 1000.15 998.95 997.62 996.71 996.47 995.80 995.15 995.23 995.72 996.13 996.48 996.48
1007.35 1007.59 1007.57 1007.71 1007.45 1007.48 1007.81 1007.50 1007.54 1007.91 1008.34 1008.67 1009.08 1009.76 1010.18 1010.48 1010.99 1011.12 1011.05 1010.85 1010.42 1009.68 1008.85 1008.05 1007.42 1006.53 1005.58 1004.70 1003.82 1002.94 1002.02 1001.02 999.99 998.58 997.27 996.76 996.38 995.66 995.15 995.18 995.36 995.68 996.09 996.52
Wind_Speed
7 2 6 12 11 11 7 7 9 5 4 14 10 7 7 4 2 6 8 8 8 9 8 7 6 8 8 3 3 5 5 1 2 2 1 3 4 4 5 5 7 6 8 14
4 10 14 15 14 14 12 5 6 7 6 3 4 5 2 3 6 6 6 6 6 3 5 6 10 14 12 8 9 9 8 8 4 1 2 2 3 4 5 7 8 11 12 13
10 11 17 17 7 5 2 3 6 6 7 7 3 5 5 8 6 8 7 9 4 7 10 10 9 8 8 7 7 7 6 5 4 5 3 4 4 4 5 9 8 11 11 14
9 11 14 2 6 5 5 7 9 10 2 2 6 4 5 8 9 15 1 10 8 10 10 8 8 7 6 4 6 6 5 4 3 4 3 3 2 6 7 6 8 11 13 15
10 9 9 6 7 8 7 6 7 7 7 7 9 4 8 9 11 10 8 9 8 9 9 8 7 7 7 7 5 5 5 5 2 3 3 2 3 4 7 9 12 13 14 17
12 9 8 6 4 6 6 6 7 5 1 2 16 6 9 10 10 7 8 8 8 9 8 7 6 6 4 5 6 5 5 4 5 4 5 4 6 8 8 11 12 11 11 13
6 9 10 9 5 5 3 6 2 4 1 8 1 3 8 4 9 11 9 8 8 8 6 3 3 3 4 1 1 1 0 4 5 4 5 7 8 8 9 14 12 14 11 11
3 6 5 7 4 4 2 6 5 4 3 5 3 7 5 7 10 10 9 8 5 3 4 4 3 4 5 4 5 5 5 6 6 6 6 6 7 5 7 10 12 10 12 12
1 6 2 5 3 4 4 3 4 0 5 1 4 6 6 16 10 8 6 6 8 8 7 7 7 6 5 5 6 6 7 8 8 7 6 7 7 7 5 8 9 10 13 12
1 3 4 7 8 1 2 4 3 4 3 4 5 5 6 4 5 5 3 3 2 5 6 5 2 4 5 7 7 8 8 9 9 6 6 6 7 7 6 5 9 13 13 7
3 3 3 7 1 4 5 4 3 5 6 5 1 4 9 4 6 5 5 7 8 8 3 3 3 4 5 4 5 6 6 7 6 7 7 7 7 7 6 5 6 10 8 4
3 4 2 7 11 10 9 6 5 6 5 3 5 9 12 4 6 7 9 9 7 1 5 7 7 7 8 8 12 11 11 13 14 15 16 13 8 7 6 6 7 4 5 6
3 2 1 7 6 5 9 8 5 5 4 8 4 6 9 11 8 6 4 9 8 8 8 7 8 10 12 10 11 11 11 12 13 14 15 16 15 13 13 11 8 4 6 7
7 1 4 5 2 1 7 15 9 6 5 8 13 16 16 12 9 8 8 9 8 8 8 9 7 6 6 8 8 10 12 14 15 15 16 15 15 14 14 14 13 10 5 5
3 5 5 7 10 5 10 14 16 13 12 7 12 16 11 3 11 7 7 9 10 10 11 10 10 9 9 11 13 16 16 17 18 16 16 17 16 15 15 15 11 11 10 6
6 3 4 7 11 11 16 15 18 20 16 17 16 12 3 7 8 11 9 13 12 11 13 13 12 11 13 14 15 17 19 20 18 18 17 16 17 17 18 17 15 12 12 11
1 1 2 5 9 8 9 16 15 14 14 13 9 3 8 10 10 9 11 11 9 10 10 12 12 11 12 15 18 20 19 18 17 18 17 18 17 17 17 15 14 16 11 10
3 3 2 3 4 5 7 3 7 8 5 14 11 11 9 6 7 6 8 5 7 10 12 9 8 12 16 18 16 18 16 16 17 18 16 16 17 19 17 15 16 13 8 8
8 4 2 2 3 7 9 2 3 3 8 4 8 8 7 8 6 1 11 12 9 9 6 5 10 16 16 16 15 17 16 16 16 17 17 16 16 17 17 18 12 9 11 10
9 7 3 2 4 4 1 4 15 11 3 6 7 7 7 8 8 6 12 7 12 6 6 12 16 16 15 15 15 16 16 16 16 16 16 16 16 15 16 16 15 12 11 8
6 4 9 7 3 6 5 8 9 3 3 3 7 6 7 4 3 7 8 10 10 7 13 16 16 15 15 15 15 16 16 16 16 16 16 16 15 15 14 14 13 13 10 8
7 6 4 6 4 6 9 5 1 5 1 6 5 5 5 5 7 7 8 11 8 14 17 17 16 16 15 14 13 15 16 16 16 16 17 17 16 12 11 11 10 12 11 10
3 5 4 3 4 1 4 6 5 3 5 5 5 5 6 6 6 9 10 12 12 16 16 16 15 18 15 14 12 15 16 16 16 17 18 18 18 13 11 10 10 8 10 10
4 2 1 2 2 2 6 6 7 3 7 6 6 6 6 6 8 11 11 13 15 14 15 15 16 16 17 15 15 14 15 15 16 17 19 15 15 12 10 8 7 7 7 5
5 5 6 5 3 4 1 4 3 4 7 8 8 6 7 8 9 11 12 15 15 15 15 14 14 15 17 16 16 15 16 15 15 16 17 7 10 12 9 6 6 6 7 7
1 2 1 2 4 4 7 5 2 6 7 7 7 8 8 9 9 12 13 14 14 15 14 14 15 15 16 16 16 16 15 15 16 15 11 6 7 7 3 3 4 8 6 6
Wind_Direction
211 178 228 242 238 242 258 260 230 293 249 151 183 196 214 270 306 198 201 209 216 217 230 229 201 207 214 153 160 163 152 256 22 63 85 259 238 235 259 250 224 195 194 206
252 223 236 242 244 236 248 285 322 327 345 102 178 206 214 312 274 249 238 244 226 155 99 94 63 67 72 78 64 57 45 20 358 29 292 309 261 246 251 255 261 215 219 206
219 237 225 246 275 326 13 346 312 295 313 350 83 348 318 273 256 246 240 212 188 106 77 73 65 80 78 65 63 76 73 55 34 12 349 342 330 317 272 262 255 249 229 214
248 262 266 195 314 318 322 263 257 259 6 273 44 276 290 274 263 235 336 80 92 82 75 65 57 54 65 80 76 94 80 50 20 22 28 350 269 294 284 266 261 261 246 233
289 312 321 233 201 215 233 59 32 11 6 30 324 357 267 261 261 91 87 84 81 85 88 73 57 44 54 52 43 54 44 3 343 358 16 350 304 279 299 294 274 256 253 248
275 309 295 304 221 222 82 53 14 348 9 344 248 199 266 263 149 120 102 98 89 80 70 64 56 69 45 37 42 19 13 344 327 345 328 287 279 292 295 290 280 270 256 256
289 270 281 316 344 319 119 84 346 336 278 218 327 294 229 189 121 125 118 98 94 92 74 84 65 351 318 35 203 240 343 295 286 269 277 284 292 273 282 289 281 277 264 254
274 313 263 34 54 17 340 127 141 235 237 284 307 206 243 145 104 92 95 108 110 140 169 199 190 260 256 276 283 251 272 271 263 269 264 264 269 258 286 289 284 274 270 266
116 270 311 252 290 76 1 59 128 302 251 331 255 302 352 108 103 110 142 171 199 212 215 216 240 251 225 246 241 228 247 262 253 253 259 281 278 279 277 294 301 298 275 264
96 353 342 336 312 56 282 298 36 346 5 273 273 260 127 89 99 84 31 298 249 243 252 248 212 201 234 225 236 255 255 247 242 248 251 255 257 271 285 303 305 306 297 276
98 115 289 12 284 183 281 236 197 163 148 196 321 269 127 134 152 186 234 236 240 252 196 176 237 254 251 255 256 270 288 274 253 249 255 258 262 270 274 284 298 307 300 238
35 126 272 243 265 234 232 235 196 147 258 250 182 250 336 320 227 207 234 233 242 304 37 28 32 30 22 25 32 25 17 12 10 359 349 323 297 278 275 282 285 289 259 251
3 178 320 319 271 248 229 239 233 155 142 226 223 264 290 284 288 289 5 46 45 38 31 26 29 27 24 16 11 8 359 349 343 342 340 334 330 333 331 307 291 293 250 232
79 328 187 204 149 357 328 323 284 204 179 235 250 267 271 271 272 49 33 42 30 21 11 32 32 12 11 3 349 336 325 321 314 313 309 305 306 311 318 314 319 300 264 235
128 212 237 261 275 225 228 246 277 276 272 230 240 245 260 339 69 56 49 24 11 20 19 6 355 350 344 333 325 323 314 316 310 302 301 298 296 293 294 297 304 314 302 261
12 303 291 283 286 279 271 248 227 254 259 270 270 271 28 63 53 35 19 38 26 8 357 347 337 335 329 324 319 314 304 303 299 295 292 293 293 290 287 283 280 288 304 295
75 275 20 260 265 327 287 246 247 251 245 266 268 50 51 34 29 21 49 31 7 344 325 324 337 353 338 321 309 305 305 301 297 293 292 291 290 289 287 287 295 281 284 300
189 241 150 252 299 241 275 230 261 241 51 24 49 44 42 29 14 37 59 9 322 333 342 12 350 324 316 314 306 302 302 302 297 294 293 293 290 283 284 285 279 276 286 280
186 191 228 247 228 307 304 289 18 348 73 35 37 23 22 8 337 238 15 348 353 342 1 337 323 317 314 305 307 304 304 303 300 298 296 293 290 292 283 275 269 282 290 297
183 167 163 200 232 229 116 13 357 329 139 16 35 25 15 14 7 309 343 7 344 46 348 329 322 317 308 310 307 302 299 297 294 293 292 290 286 285 284 290 294 272 265 251
151 165 217 225 257 282 277 142 157 334 190 10 51 26 18 21 256 293 337 345 344 351 331 330 320 310 311 309 305 298 299 293 293 295 291 283 277 272 270 274 280 261 251 284
175 170 186 201 217 239 8 173 175 167 222 75 48 23 9 343 326 322 339 331 359 331 331 331 316 314 313 309 306 301 298 299 297 293 286 280 274 265 263 263 267 283 238 234
244 194 180 169 216 315 329 27 328 104 96 57 47 12 20 351 335 339 350 346 332 333 330 321 318 315 314 314 309 300 299 300 296 292 285 280 275 259 252 248 250 252 266 214
292 107 108 49 291 354 31 24 311 62 77 53 43 34 7 14 357 10 345 339 335 334 326 324 319 317 315 318 313 303 303 307 298 293 291 284 297 267 247 232 230 235 241 222
223 174 182 216 199 101 206 174 237 13 58 57 43 20 40 35 32 4 347 342 337 329 326 322 321 319 317 317 316 317 313 308 304 301 303 316 309 297 273 220 215 224 230 197
89 332 146 190 102 117 206 244 113 60 69 64 43 46 51 47 34 4 353 344 332 329 328 328 325 321 320 321 321 319 316 317 311 307 312 324 314 323 315 213 208 222 231 154